Hourly Data Report for March 15, 2017

PORT ALBERNI (AUT)
BRITISH COLUMBIA

49°18'59.700" N
124°55'36.600" W
76.20 m
1036B06
71475
WQC

Download Data

Hourly Data (March 2017)
Hourly Data Report for March 15, 2017
TIME
LST
Temp Definition
°C
Dew Point Definition
°C
Rel Hum Definition
%
Precip. Amount Definition
mm

Wind Dir Definition
10's deg

Wind Spd Definition
km/h
Visibility Definition
km
Stn Press Definition
kPa
Hmdx Definition


Wind Chill Definition


Weather Definition


00:00 1.2 1.0 98 0.0 0 1   100.46     LegendNANA
01:00 0.2 0.0 98 0.0 32 1   100.46     LegendNANA
02:00 1.4 1.2 99 0.0 34 3   100.46     LegendNANA
03:00 0.6 0.4 99 0.0   0   100.43     LegendNANA
04:00 1.2 1.0 99 0.0   0   100.40     LegendNANA
05:00 1.8 1.7 99 0.0 27 2   100.33     LegendNANA
06:00 2.1 1.9 99 0.0 0 1   100.30     LegendNANA
07:00 2.4 2.3 99 0.0 29 3   100.28     LegendNANA
08:00 2.5 2.4 99 0.0 20 1   100.30     LegendNANA
09:00 3.3 3.0 98 0.0 29 1   100.26     LegendNANA
10:00 4.2 3.2 94 0.0 1 3   100.22     LegendNANA
11:00 5.2 3.6 90 0.0 34 1   100.14     LegendNANA
12:00 6.9 3.7 80 0.0 5 4   100.08     LegendNANA
13:00 7.6 4.6 81 0.0 18 2   99.94     LegendNANA
14:00 10.1 4.7 69 0.1 36 3   99.82     LegendNANA
15:00 7.0 6.1 94 1.4 8 7   99.85     LegendNANA
16:00 6.6 5.9 95 1.2 24 6   99.82     LegendNANA
17:00 6.1 5.5 96 3.6 1 3   99.84     LegendNANA
18:00 6.0 5.5 97 4.3 33 4   99.87     LegendNANA
19:00 5.2 4.6 96 0.6 11 2   99.90     LegendNANA
20:00 3.5 2.9 96 0.0   0   100.00     LegendNANA
21:00 4.1 3.9 98 0.1 7 2   100.12     LegendNANA
22:00 4.3 4.1 98 0.0 0 1   100.24     LegendNANA
23:00 4.3 4.1 99 0.0 25 4   100.39     LegendNANA

Notes on Data Quality.

Legend

  • E = Estimated
  • M = Missing
  • NA = Not Available*
  • [empty] = Indicates an unobserved value
Date modified: